This is the latest recevied weather packets stored in our database for station/object KD6VLN-14. If no packets are shown the sender has not sent any weather packets the latest 10 day(s).
| Time | Temp. | Humidity | Pressure | Rain* | Wind** | Luminosity | Snow |
|---|---|---|---|---|---|---|---|
| 1777769335 | 28.33° C | 24% | - | 0 mm | - | - | - |
| 1777769035 | 28.33° C | 24% | - | 0 mm | - | - | - |
| 1777768736 | 28.33° C | 24% | - | 0 mm | - | - | - |
| 1777768435 | 28.33° C | 25% | - | 0 mm | - | - | - |
| 1777768135 | 28.33° C | 24% | - | 0 mm | - | - | - |
| 1777767835 | 28.89° C | 24% | - | 0 mm | - | - | - |
| 1777767535 | 28.89° C | 26% | - | 0 mm | - | - | - |
| 1777767235 | 28.89° C | 27% | - | 0 mm | - | - | - |
| 1777766935 | 28.89° C | 26% | - | 0 mm | - | - | - |
| 1777766635 | 28.89° C | 25% | - | 0 mm | - | - | - |
| 1777766335 | 29.44° C | 25% | - | 0 mm | - | - | - |
| 1777766035 | 29.44° C | 26% | - | 0 mm | - | - | - |
| 1777765735 | 30° C | 30% | - | 0 mm | - | - | - |
| 1777765435 | 31.11° C | 25% | - | 0 mm | - | - | - |
| 1777765136 | 31.67° C | 26% | - | 0 mm | - | - | - |
| 1777764835 | 32.78° C | 29% | - | 0 mm | - | - | - |
| 1777764535 | 32.78° C | 28% | - | 0 mm | - | - | - |
| 1777764235 | 32.22° C | 28% | - | 0 mm | - | - | - |
| 1777763935 | 31.67° C | 26% | - | 0 mm | - | - | - |
| 1777763635 | 32.22° C | 25% | - | 0 mm | - | - | - |
| 1777763335 | 32.78° C | 29% | - | 0 mm | - | - | - |
| 1777763235 | 32.78° C | 27% | - | 0 mm | - | - | - |
| 1777763035 | 32.78° C | 27% | - | 0 mm | - | - | - |
| 1777762735 | 33.89° C | 26% | - | 0 mm | - | - | - |
| 1777762435 | 34.44° C | 24% | - | 0 mm | - | - | - |
* Rain latest hour (hover to see other rain measurements)
** Current wind speed in m/s (hover to see current wind gust speed)